Hourly Data Report for January 21, 2022

TORONTO CITY
ONTARIO
Current Station Operator: ECCC - MSC

43°40'00.000" N
79°24'00.000" W
112.50 m
6158355
71508
XTO

Download Data

Hourly Data (January 2022)
Hourly Data Report for January 21, 2022
TIME
LST
Temp Definition
°C
Dew Point Definition
°C
Rel Hum Definition
%
Precip. Amount Definition
mm

Wind Dir Definition
10's deg

Wind Spd Definition
km/h
Visibility Definition
km
Stn Press Definition
kPa
Hmdx Definition


Wind Chill Definition


Weather Definition


00:00 -15.2 -19.5 70 0.0       102.13     LegendNANA
01:00 -14.9 -19.1 70 0.0       102.12     LegendNANA
02:00 -15.9 -20.3 69 0.0       102.15     LegendNANA
03:00 -16.7 -20.5 72 0.0       102.19     LegendNANA
04:00 -17.0 -21.9 66 0.0       102.20     LegendNANA
05:00 -17.5 -23.5 60 0.0       102.23     LegendNANA
06:00 -17.3 -23.6 58 0.0       102.30     LegendNANA
07:00 -17.0 -23.5 57 0.0       102.38     LegendNANA
08:00 -16.9 -23.7 56 0.0       102.37     LegendNANA
09:00 -16.7 -23.5 56 0.0       102.44     LegendNANA
10:00 -15.0 -23.4 49 0.0       102.46     LegendNANA
11:00 -12.7 -21.8 47 0.0       102.48     LegendNANA
12:00 -10.9 -19.9 47 0.0       102.43     LegendNANA
13:00 -9.6 -17.8 51 0.0       102.36     LegendNANA
14:00 -9.5 -16.9 55 0.0       102.31     LegendNANA
15:00 -9.6 -16.0 60 0.0       102.29     LegendNANA
16:00 -9.6 -15.5 62 0.0       102.27     LegendNANA
17:00 -9.6 -14.9 65 0.0       102.23     LegendNANA
18:00 -10.1 -15.3 66 0.0       102.21     LegendNANA
19:00 -10.1 -16.0 62 0.0       102.19     LegendNANA
20:00 -10.2 -15.5 65 0.0       102.14     LegendNANA
21:00 -10.1 -15.9 62 0.0       102.11     LegendNANA
22:00 -10.2 -15.1 67 0.0       102.04     LegendNANA
23:00 -10.4 -14.0 75 0.1       101.98     LegendNANA

Notes on Data Quality.

Legend

  • E = Estimated
  • M = Missing
  • NA = Not Available*
  • [empty] = Indicates an unobserved value
Date modified: